CAPE
77 143 44 4 2 13 0 3 1 0 0 0 0 0 0 0 0 0 0 0 0 0 0 0 0 0 0 0 0 0 0 0 0 0 0 0 0 0 0 0 0 0 0
319 203 30 21 69 35 3 2 1 0 0 0 0 0 0 0 0 0 0 0 0 0 0 0 0 0 0 0 0 0 0 0 0 0 0 0 0 0 0 0 0 0 0
25 33 23 10 6 6 1 1 0 0 1 1 2 2 2 0 0 0 0 0 0 0 0 0 0 0 0 4 3 4 0 0 0 0 0 0 0 0 0 0 0 0 0
12 10 8 7 5 2 3 1 1 3 2 5 5 1 0 0 0 0 0 0 0 0 0 0 0 4 0 0 7 66 49 16 0 0 0 0 0 0 0 0 10 22 33
9 7 6 6 4 4 6 9 1 4 5 3 0 0 0 0 0 0 0 0 0 0 0 0 0 0 0 0 0 0 42 50 45 55 36 47 58 49 50 33 3 0 7
6 4 4 5 12 15 6 2 12 3 0 0 0 0 0 0 0 0 0 0 0 0 0 0 0 0 0 0 0 0 2 86 84 45 33 45 252 232 95 71 27 0 0
4 7 11 11 13 3 4 14 5 0 0 0 0 0 0 0 0 0 0 11 20 17 57 39 14 0 0 0 0 0 0 0 6 265 407 403 265 169 301 234 67 83 27
27 15 9 7 11 15 16 6 1 0 0 0 0 0 7 23 0 0 0 70 203 266 247 246 238 174 171 44 40 36 31 27 56 87 282 506 412 356 342 301 248 161 41
38 31 26 27 17 8 1 0 0 0 0 0 17 37 44 58 0 0 0 102 180 286 228 267 266 245 39 0 1 82 68 23 0 0 0 3 3 0 5 52 63 64 15
110 64 21 5 2 0 0 0 0 6 28 27 44 54 47 83 18 0 0 10 25 30 81 160 1 4 9 0 1 121 113 17 8 4 34 14 20 80 0 42 63 53 57
118 73 40 16 21 26 20 24 30 37 53 82 92 130 81 30 100 0 0 1 50 54 98 178 260 2 0 0 0 122 242 236 273 253 262 186 133 76 57 56 49 38 67
134 150 137 94 37 34 58 74 91 142 182 170 103 76 26 86 0 0 0 0 0 50 207 180 239 0 0 0 0 0 0 0 47 162 129 81 35 25 24 35 48 41 48
336 310 310 275 130 93 181 261 104 83 53 51 37 23 14 30 90 0 0 0 0 0 40 10 0 0 0 0 0 0 0 2 26 48 21 10 10 16 52 56 44 99 50
422 509 492 370 209 113 51 56 35 28 21 20 24 53 46 112 142 185 145 53 3 0 0 13 3 0 0 0 1 4 4 7 2 1 17 27 17 35 74 88 74 79 56
490 363 186 153 17 36 20 6 19 86 52 56 38 16 17 18 47 30 23 95 113 19 0 1 23 33 40 38 21 2 2 3 19 21 27 50 76 78 99 105 106 82 34
83 14 5 0 0 0 0 18 0 0 0 0 0 1 0 0 0 0 0 0 0 0 0 4 50 50 13 0 0 17 9 4 23 29 24 31 49 88 76 53 80 36 19
105 17 27 3 27 40 78 140 251 26 0 0 0 0 0 0 0 0 0 0 0 0 0 80 32 8 5 0 4 1 3 7 9 4 6 36 58 47 77 77 98 40 62
109 13 57 45 79 195 299 365 380 365 171 10 0 0 0 0 0 0 0 0 0 0 0 31 30 16 0 0 3 4 2 3 4 2 2 39 64 54 90 101 114 84 9
104 116 65 128 307 318 516 491 491 468 432 343 342 93 23 0 0 0 0 0 290 386 184 73 33 26 36 1 1 1 0 0 0 0 12 24 92 107 85 116 76 0 0
236 40 112 338 377 537 367 558 562 578 627 650 664 633 420 0 135 156 7 11 75 234 219 157 118 74 16 0 0 0 0 2 7 25 30 30 49 66 30 6 0 0 0
277 268 151 292 472 652 729 682 660 664 739 732 748 595 11 157 369 422 310 317 212 265 271 165 88 23 0 0 0 0 0 1 6 16 17 33 61 20 4 0 0 0 1
263 453 442 503 657 868 824 709 641 729 824 787 602 465 0 1 231 580 739 669 470 345 278 249 108 17 0 0 0 0 0 0 3 12 25 29 43 47 0 0 0 0 42
734 687 705 859 899 682 751 735 744 847 737 636 541 426 367 391 484 572 578 493 403 316 220 134 43 0 0 0 0 0 0 0 0 4 3 5 31 49 10 0 5 15 9
540 792 986 862 868 681 634 568 673 539 542 572 441 457 491 502 499 559 509 342 256 171 57 21 13 0 0 0 0 0 0 0 0 0 0 0 13 4 0 6 10 31 33
495 793 929 778 559 558 622 718 778 683 540 490 524 514 501 470 497 524 414 267 216 57 0 5 3 0 0 0 0 0 0 0 0 0 0 0 1 9 17 21 14 27 19
217 516 548 740 762 772 621 579 552 541 511 481 401 432 467 487 538 474 349 242 88 53 8 0 0 0 0 0 0 0 0 0 0 0 0 0 0 3 16 25 14 17 11
CIN
-253 -148 -267 -33 -0 -228 -0 -0 -0 -0 -0 -0 -0 -0 -0 -0 -0 -0 -0 -0 -0 -0 -0 -0 -0 -0 -0 -0 -0 -0 -0 -0 -0 -0 -0 -0 -0 -0 -0 -0 -0 -0 -0
-186 -243 -362 -408 -356 -373 -7 -0 -0 -0 -0 -0 -0 -0 -0 -0 -0 -0 -0 -0 -0 -0 -0 -0 -0 -0 -0 -0 -0 -0 -0 -0 -0 -0 -0 -0 -0 -0 -0 -0 -0 -0 -0
-562 -511 -424 -516 -0 -0 -0 -0 -0 -0 -0 -0 -0 -0 -0 -0 -0 -0 -0 -0 -0 -0 -0 -0 -0 -0 -0 -33 -12 -0 -0 -0 -0 -0 -0 -0 -0 -0 -0 -0 -0 -0 -0
-615 -295 -0 -0 -0 -0 -0 -0 -0 -0 -0 -0 -0 -0 -0 -0 -0 -0 -0 -0 -0 -0 -0 -0 -0 -0 -0 -0 -0 -0 -0 -0 -0 -0 -0 -0 -0 -0 -0 -0 -2 -10 -13
-0 -0 -0 -0 -0 -0 -0 -0 -0 -0 -0 -0 -0 -0 -0 -0 -0 -0 -0 -0 -0 -0 -0 -0 -0 -0 -0 -0 -0 -0 -0 -0 -0 -0 -0 -1 -0 -1 -0 -1 -1 -0 -4
-0 -0 -0 -0 -0 -0 -0 -0 -0 -0 -0 -0 -0 -0 -0 -0 -0 -0 -0 -0 -0 -0 -0 -0 -0 -0 -0 -0 -0 -0 -0 -0 -0 -0 -0 -0 -5 -6 -4 -9 -6 -0 -0
-0 -1 -0 -0 -0 -0 -0 -0 -0 -0 -0 -0 -0 -0 -0 -0 -0 -0 -0 -3 -24 -21 -62 -7 -4 -0 -0 -0 -0 -0 -0 -0 -24 -4 -0 -2 -3 -9 -6 -10 -2 -9 -6
-306 -0 -0 -0 -0 -0 -0 -0 -0 -0 -0 -0 -0 -0 -7 -8 -0 -0 -0 -98 -21 -2 -3 -4 -4 -7 -6 -11 -42 -31 -62 -92 -60 -33 -6 -12 -11 -20 -22 -14 -14 -40 -20
-214 -169 -0 -0 -0 -0 -0 -0 -0 -0 -0 -0 -13 -14 -15 -7 -0 -0 -0 -73 -26 -13 -23 -19 -16 -21 -35 -0 -6 -26 -46 -107 -0 -0 -1 -9 -13 -1 -7 -25 -10 -10 -0
-108 -102 -159 -0 -0 -0 -0 -0 -0 -8 -9 -4 -8 -13 -24 -79 -48 -0 -0 -127 -127 -133 -79 -56 -7 -66 -72 -0 -5 -29 -21 -29 -22 -4 -52 -48 -3 -102 -3 -108 -24 -3 -0
-50 -56 -98 -0 -2 -4 -10 -14 -16 -14 -7 -9 -34 -22 -98 -33 -73 -0 -0 -12 -104 -89 -55 -30 -22 -22 -0 -0 -0 -46 -40 -47 -34 -38 -24 -19 -35 -58 -32 -39 -54 -36 -3
-9 -8 -14 -38 -3 -6 -8 -9 -14 -24 -14 -14 -58 -82 -48 -96 -0 -0 -0 -0 -0 -89 -35 -13 -18 -0 -0 -0 -0 -0 -0 -0 -71 -29 -22 -22 -33 -29 -22 -24 -27 -29 -10
-0 -0 -0 -1 -8 -7 -7 -3 -47 -33 -0 -0 -0 -1 -1 -104 -59 -0 -0 -0 -0 -0 -61 -3 -0 -0 -0 -0 -0 -0 -0 -213 -105 -41 -36 -40 -50 -29 -39 -18 -29 -1 -9
-1 -0 -1 -1 -2 -8 -4 -0 -0 -0 -1 -2 -8 -30 -34 -22 -15 -17 -44 -80 -8 -0 -0 -7 -50 -0 -0 -0 -11 -17 -237 -173 -130 -85 -39 -38 -71 -31 -3 -0 -4 -0 -0
-12 -11 -10 -5 -13 -1 -4 -0 -2 -17 -8 -13 -20 -10 -10 -31 -22 -35 -41 -41 -43 -22 -0 -19 -74 -59 -54 -59 -75 -71 -114 -104 -58 -36 -14 -3 -0 -0 -0 -0 -0 -0 -0
-33 -22 -17 -0 -0 -0 -0 -4 -0 -0 -0 -0 -0 -5 -1 -0 -0 -0 -0 -0 -0 -0 -0 -67 -56 -74 -87 -0 -0 -53 -49 -22 -11 -6 -0 -0 -0 -0 -0 -0 -0 -0 -7
-51 -35 -27 -40 -14 -21 -32 -15 -0 -25 -0 -0 -0 -0 -0 -0 -0 -0 -0 -0 -0 -0 -0 -60 -84 -97 -90 -0 -43 -0 -0 -0 -0 -0 -0 -0 -0 -0 -0 -0 -0 -1 -0
-77 -86 -41 -63 -64 -24 -6 -5 -2 -1 -4 -5 -0 -0 -0 -0 -0 -0 -0 -0 -0 -0 -0 -73 -70 -85 -0 -0 -0 -0 -0 -0 -0 -0 -0 -0 -0 -0 -0 -0 -0 -0 -6
-95 -63 -121 -112 -46 -27 -6 -10 -3 -7 -11 -12 -19 -59 -57 -0 -0 -0 -0 -9 -64 -54 -69 -91 -104 -78 -46 -0 -0 -0 -0 -0 -0 -0 -1 -1 -0 -0 -0 -0 -0 -0 -0
-68 -147 -125 -55 -46 -20 -33 -8 -2 -8 -12 -14 -14 -18 -52 -10 -106 -94 -183 -166 -128 -80 -72 -82 -68 -39 -8 -0 -0 -0 -0 -0 -0 -0 -0 -0 -0 -0 -2 -0 -0 -0 -0
-31 -27 -117 -55 -32 -11 -4 -2 -2 -1 -4 -9 -13 -39 -184 -113 -52 -71 -100 -97 -117 -84 -80 -71 -45 -19 -0 -0 -0 -0 -0 -0 -0 -0 -0 -0 -0 -6 -14 -0 -0 -0 -2
-57 -35 -41 -42 -13 -10 -6 -2 -0 -0 -1 -4 -12 -36 -0 -12 -92 -62 -58 -58 -53 -70 -77 -63 -43 -33 -0 -0 -0 -0 -0 -0 -0 -0 -0 -0 -0 -0 -0 -0 -0 -0 -0
-34 -29 -18 -10 -6 -13 -8 -4 -0 -0 -2 -3 -18 -35 -39 -93 -59 -60 -60 -61 -66 -81 -88 -78 -52 -21 -0 -0 -0 -0 -0 -0 -0 -0 -0 -0 -0 -0 -1 -0 -1 -1 -5
-15 -8 -6 -6 -4 -2 -1 -0 -0 -11 -30 -22 -22 -23 -22 -31 -29 -33 -54 -57 -71 -106 -130 -137 -55 -0 -0 -0 -0 -0 -0 -0 -0 -0 -0 -0 -0 -0 -0 -2 -2 -0 -0
-9 -6 -12 -22 -3 -2 -0 -3 -7 -11 -15 -19 -18 -19 -19 -23 -29 -32 -43 -74 -84 -139 -13 -113 -40 -0 -0 -0 -0 -0 -0 -0 -0 -0 -0 -0 -0 -0 -0 -0 -0 -0 -0
-14 -4 -0 -1 -4 -1 -3 -9 -8 -13 -19 -20 -21 -25 -28 -25 -32 -43 -57 -77 -129 -104 -101 -0 -0 -0 -0 -0 -0 -0 -0 -0 -0 -0 -0 -0 -0 -0 -0 -0 -0 -0 -0
Wind_Speed
14 15 17 13 12 10 7 2 7 7 7 6 4 4 4 4 4 4 4 6 5 5 5 7 7 5 5 4 3 4 2 3 3 4 2 1 3 3 3 4 5 5 4
10 9 7 7 8 7 9 8 8 7 7 6 6 5 5 5 5 5 5 5 6 6 7 6 4 5 5 5 4 2 1 1 1 1 2 1 3 3 4 5 4 4 4
10 10 9 9 8 10 9 9 8 8 8 8 8 8 7 6 5 5 5 6 5 5 5 6 6 5 5 4 2 4 3 3 2 2 2 2 2 3 4 5 5 4 6
9 8 8 9 10 10 10 10 9 8 8 8 7 6 6 6 6 6 5 5 4 4 4 3 4 4 4 4 4 4 4 4 3 4 4 4 4 2 4 5 5 4 6
10 11 10 11 11 10 9 8 7 7 6 5 5 5 6 6 6 6 5 5 4 4 5 5 5 4 2 4 4 4 4 5 4 4 4 4 6 5 5 5 7 6 7
10 11 10 10 10 9 8 7 8 7 7 6 6 6 6 4 7 5 4 5 5 5 5 5 5 6 8 7 7 7 7 6 6 6 6 6 8 7 6 6 6 7 8
8 9 9 9 9 8 8 8 8 8 7 6 6 6 6 5 7 8 9 7 6 5 6 6 6 5 6 7 8 8 10 11 11 8 9 9 8 7 7 7 6 7 9
9 9 9 9 9 9 9 8 8 7 6 6 6 7 7 7 9 10 9 8 7 9 9 9 8 8 8 8 8 9 9 9 10 9 12 12 10 9 8 8 9 9 10
9 10 10 10 10 10 9 9 8 8 8 8 7 8 8 7 9 9 8 8 8 8 8 9 9 10 8 9 8 10 11 11 9 13 14 14 12 10 11 9 10 10 11
10 10 10 10 11 11 11 10 9 8 8 6 7 7 7 8 7 8 7 6 7 7 7 9 10 13 7 11 9 10 11 12 10 10 9 12 15 12 14 12 9 10 11
10 10 10 10 10 10 9 8 8 7 6 7 7 7 7 8 8 9 9 7 7 6 7 6 6 9 12 11 13 11 13 10 9 10 10 10 10 9 7 7 7 7 9
11 11 10 10 8 8 9 8 8 7 7 7 6 6 7 8 11 10 10 11 7 7 8 7 8 8 10 11 8 13 11 7 10 9 10 10 8 9 8 6 5 6 8
11 11 11 10 9 9 8 7 6 7 7 6 6 6 6 5 6 11 11 11 12 10 9 7 7 6 9 9 15 12 6 8 8 9 10 10 9 8 7 8 7 5 8
12 11 10 10 10 9 7 7 6 6 6 6 6 7 6 6 6 6 6 7 12 9 10 9 6 7 8 9 6 8 7 6 7 9 9 8 5 6 7 6 6 7 7
11 10 10 9 10 9 8 7 7 7 6 6 6 5 5 5 4 3 3 3 3 1 5 7 8 7 7 7 7 6 5 5 7 6 6 7 8 7 7 6 7 7 5
10 9 9 8 8 7 7 7 11 12 7 11 14 9 7 11 12 8 8 8 7 7 6 8 8 6 6 5 5 5 5 4 4 5 6 6 7 7 7 7 5 4 5
12 11 9 9 8 8 8 8 8 8 12 13 15 14 14 16 10 10 2 4 5 9 7 6 5 4 4 4 5 5 4 3 4 5 5 7 7 7 7 7 6 5 6
13 8 9 8 9 8 8 8 7 6 6 5 11 12 14 16 14 9 6 6 5 6 6 6 5 4 4 5 4 4 4 4 5 5 5 7 7 6 7 8 6 6 4
12 9 10 8 7 9 8 7 7 6 7 8 7 8 10 2 1 1 8 7 7 6 6 5 5 5 5 5 4 4 4 4 4 4 5 6 7 7 7 7 4 2 3
11 14 9 9 7 9 9 8 7 7 8 8 8 8 3 2 5 5 6 7 8 7 6 7 6 6 5 5 5 4 4 5 5 7 6 6 5 6 4 3 4 5 6
10 11 13 11 11 11 10 10 8 8 8 8 9 8 7 7 8 7 7 8 9 8 7 7 7 7 6 6 5 5 6 6 6 7 7 6 4 6 6 5 6 5 6
9 9 9 11 11 10 9 9 9 9 10 9 9 9 10 8 8 9 8 9 9 9 8 8 8 7 7 6 5 6 6 6 7 7 7 7 6 7 6 7 5 8 7
9 10 11 9 10 10 9 10 9 10 10 11 10 10 9 10 10 9 10 10 9 9 9 9 9 8 8 7 6 6 7 6 6 6 7 8 8 8 6 7 8 6 7
9 9 10 10 9 8 9 10 10 11 11 12 12 11 11 11 11 11 10 9 9 9 8 7 10 12 9 9 7 7 6 5 5 6 8 8 7 5 8 7 8 8 8
9 9 9 10 9 8 9 10 11 12 12 11 12 11 11 10 11 10 9 8 10 10 9 9 11 13 15 13 9 8 3 6 7 3 5 6 7 7 8 7 7 8 10
10 10 9 8 9 9 10 11 11 11 11 11 11 10 11 10 10 10 9 9 10 11 13 11 13 16 15 12 11 8 9 7 6 7 5 6 6 7 7 8 10 9 10
Wind_Direction
156 161 166 161 160 174 168 206 119 133 136 165 164 153 143 121 122 125 134 150 148 140 134 136 125 144 131 130 131 118 107 128 150 130 211 115 296 280 289 274 268 280 262
157 144 140 127 139 139 116 127 128 128 135 161 164 163 156 157 160 166 166 151 148 141 143 136 126 143 145 157 174 155 110 82 6 172 68 215 240 303 283 268 266 276 272
125 131 146 138 124 116 114 127 136 142 153 159 170 175 165 156 147 154 164 159 161 160 156 161 145 158 165 162 174 182 173 200 200 281 291 273 291 276 277 261 265 267 265
133 140 135 130 131 126 135 139 142 152 159 171 175 167 162 160 161 162 162 158 169 168 177 174 177 200 191 183 205 203 191 218 201 252 264 269 269 231 272 286 289 241 287
134 134 132 136 124 130 133 137 137 154 164 165 157 151 152 164 173 171 177 183 195 193 204 217 219 244 265 263 264 222 231 238 237 254 263 267 269 269 274 309 293 310 293
129 129 130 125 135 140 131 148 161 160 154 162 167 168 170 188 134 195 216 198 207 217 220 218 236 226 232 238 251 262 276 248 253 262 267 270 282 272 272 272 291 296 306
120 131 134 136 140 141 154 165 166 168 162 177 173 182 193 203 183 214 217 228 232 238 246 249 248 243 228 247 217 236 245 243 249 271 267 272 282 289 301 288 283 279 283
143 146 144 151 157 166 168 172 171 171 180 179 189 200 206 209 205 220 225 245 245 245 247 250 253 258 245 242 245 253 256 256 239 227 237 256 254 260 260 269 283 283 272
161 164 167 166 162 169 174 177 177 181 189 194 199 206 219 229 206 228 220 235 241 251 253 253 250 253 246 205 245 255 263 263 232 217 245 261 268 267 261 279 263 267 279
170 170 167 167 171 177 180 181 185 197 199 205 213 221 231 252 208 214 204 249 252 259 255 256 232 249 244 185 236 251 259 262 265 271 242 233 234 246 225 235 263 268 282
168 168 175 178 179 182 180 185 194 204 218 222 236 230 231 233 244 220 206 245 255 261 268 268 260 218 238 219 216 243 244 261 261 259 267 268 269 268 257 228 239 265 277
171 178 182 186 191 181 194 195 206 214 224 224 227 238 229 234 224 234 224 224 251 257 264 269 263 220 228 243 227 241 254 279 269 271 271 273 280 282 281 267 252 243 267
180 184 190 192 196 202 205 210 200 205 227 228 234 246 248 232 236 218 236 229 227 234 251 276 314 278 238 240 228 244 223 242 249 260 264 274 275 274 294 266 262 212 240
189 193 195 199 201 207 211 206 216 216 224 236 249 257 260 255 243 231 218 212 227 220 245 252 267 281 273 272 274 215 221 235 245 259 274 286 293 266 275 274 272 285 278
195 195 202 207 201 197 215 215 219 234 240 252 254 263 267 258 246 223 260 263 262 310 312 273 268 264 265 266 262 266 260 248 249 257 261 268 278 276 275 278 273 288 290
195 201 203 204 201 212 224 227 221 246 224 230 250 251 259 248 280 241 218 233 235 229 231 255 265 265 265 265 265 277 271 255 271 276 278 279 276 270 273 272 280 252 257
208 206 206 216 213 220 224 238 255 224 226 234 240 235 227 255 267 269 235 242 232 168 237 249 247 252 263 269 275 274 272 267 284 275 284 280 271 273 257 257 251 232 240
214 220 217 208 224 226 229 233 244 257 266 249 220 228 224 233 246 251 199 176 204 213 240 244 245 243 252 252 235 246 261 274 278 293 293 277 269 256 256 260 248 223 239
216 221 215 219 226 233 231 231 240 249 257 266 273 227 225 257 328 145 179 240 240 228 222 233 224 227 223 218 232 244 262 280 295 281 273 273 279 265 261 256 228 224 260
225 232 235 229 224 225 228 229 237 242 249 257 265 269 260 195 245 230 214 219 232 234 230 225 215 212 211 218 226 243 246 242 239 242 265 290 284 271 261 251 229 230 233
230 235 220 230 230 231 233 230 235 244 250 256 263 269 246 245 262 245 247 226 227 227 222 217 207 206 207 213 220 228 250 266 273 277 277 277 255 231 230 233 242 235 248
228 230 223 220 229 225 227 237 237 244 251 257 264 268 184 232 254 251 240 233 227 231 216 208 205 203 206 214 218 245 260 266 272 273 272 276 262 246 218 226 233 246 265
222 224 223 223 225 218 218 237 241 246 251 258 262 266 248 243 249 241 246 244 239 224 208 205 204 201 200 210 214 227 252 262 275 279 280 281 271 251 236 228 234 261 270
228 232 235 223 217 219 226 239 246 247 260 264 264 262 261 260 255 248 246 253 238 209 203 199 210 209 205 209 203 220 229 245 256 269 275 275 267 214 233 237 247 266 288
228 222 217 219 223 220 237 244 251 254 257 258 260 259 261 262 257 251 257 246 223 210 209 199 215 211 213 208 218 220 163 163 245 318 248 249 248 240 249 262 278 277 277
229 228 229 226 229 239 246 251 254 257 260 265 272 270 268 268 259 257 254 246 225 220 218 219 217 211 208 200 199 168 135 173 207 224 252 243 240 245 257 269 272 272 277